Weather History for Craiova, Romania

Change the Weather History Date:

Tuesday, January 28, 2014

  Actual Average Record
Temperature  
Mean Temperature 21 °F -  
Max Temperature 23 °F 40 °F - ()
Min Temperature 19 °F 26 °F - ()
Degree Days  
Heating Degree Days 44    
Moisture  
Dew Point 18 °F    
Average Humidity 85    
Maximum Humidity 95    
Minimum Humidity 74    
Precipitation  
Precipitation 0.02 in 0.05 in - ()
Sea Level Pressure  
Sea Level Pressure 29.74 in    
Wind  
Wind Speed 9 mph ()    
Max Wind Speed 18 mph    
Max Gust Speed -    
Visibility 4.9 miles    
Events      
T = Trace of Precipitation, MM = Missing Value Source: Averaged Metar Reports

Daily Weather History Graph

Daily Weather History Graph

Search for Another Location

Airport:

Trip Planner

Search our weather history database for the weather conditions in past years. The results will help you decide how hot, cold, wet, or windy it might be!

Date:

Astronomy

Jan. 28, 2014 Rise Set
Actual Time 7:47 AM EET 5:28 PM EET
Civil Twilight 7:15 AM EET 5:59 PM EET
Nautical Twilight 6:40 AM EET 6:34 PM EET
Astronomical Twilight 6:06 AM EET 7:08 PM EET
Moon 5:11 AM EET (1/28) 2:55 PM EET (1/28)
Length of Visible Light 10h 43m
Length of Day
9h 41m
Waning Crescent, 9% of the Moon is Illuminated
Jan 28
Waning Crescent
Jan 30
New
Feb 6
First Quarter
Feb 15
Full
Feb 22
Last Quarter

Hourly Weather History & Observations

Time (EET) Temp. Windchill Dew Point Humidity Pressure Visibility Wind Dir Wind Speed Gust Speed Precip Events Conditions
12:00 AM 21 °F - 19 °F 91% 29.77 in 2 mi East 8.9 mph - -   Mist
12:00 AM 21.2 °F 12.6 °F 19.4 °F 93% 29.71 in 3.7 mi East 6.9 mph - N/A   Overcast
1:00 AM 21 °F - 20 °F 95% 29.76 in 2 mi ENE 6.7 mph - -   Mist
1:00 AM 21.2 °F 12.6 °F 17.6 °F 86% 29.68 in 4.3 mi East 6.9 mph - N/A   Mostly Cloudy
2:00 AM 21 °F - 20 °F 92% 29.75 in 2 mi ENE 6.7 mph - -   Mist
2:00 AM 21.2 °F 12.6 °F 19.4 °F 93% 29.68 in 3.7 mi East 6.9 mph - N/A   Mostly Cloudy
3:00 AM 20 °F - 19 °F 94% 29.75 in 2 mi ENE 6.7 mph - -   Mist
3:00 AM 21.2 °F 10.9 °F 17.6 °F 86% 29.68 in 3.1 mi East 9.2 mph - N/A   Mostly Cloudy
4:00 AM 20 °F - 19 °F 95% 29.73 in 2 mi ENE 6.7 mph - -   Mist
4:00 AM 21.2 °F 12.6 °F 17.6 °F 86% 29.68 in 3.1 mi East 6.9 mph - N/A   Mostly Cloudy
4:30 AM 19.4 °F 10.4 °F 17.6 °F 93% 29.68 in 3.7 mi East 6.9 mph - N/A   Mostly Cloudy
5:00 AM 20 °F - 19 °F 94% 29.75 in 2 mi ENE 4.5 mph - -   Mist
5:00 AM 19.4 °F 8.6 °F 17.6 °F 93% 29.68 in 4.3 mi ENE 9.2 mph - N/A   Mostly Cloudy
5:30 AM 19.4 °F 8.6 °F 17.6 °F 93% 29.68 in 5.6 mi ENE 9.2 mph - N/A   Overcast
6:00 AM 20 °F - 18 °F 91% 29.74 in 2 mi ENE 6.7 mph - -   Mist
6:00 AM 19.4 °F 10.4 °F 17.6 °F 93% 29.68 in 5.0 mi ENE 6.9 mph - N/A   Mostly Cloudy
6:30 AM 19.4 °F 8.6 °F 17.6 °F 93% 29.68 in 4.3 mi ENE 9.2 mph - N/A   Overcast
7:00 AM 20 °F - 18 °F 91% 29.75 in 2 mi NE 4.5 mph - -   Mist
7:00 AM 19.4 °F 8.6 °F 17.6 °F 93% 29.68 in 5.0 mi NE 9.2 mph - N/A   Mostly Cloudy
7:30 AM 19.4 °F 8.6 °F 17.6 °F 93% 29.71 in 5.0 mi ENE 9.2 mph - N/A   Overcast
8:00 AM 20 °F - 18 °F 89% 29.76 in 2 mi NE 6.7 mph - -   Mist
8:00 AM 19.4 °F 8.6 °F 17.6 °F 93% 29.71 in 5.6 mi ENE 9.2 mph - N/A   Mostly Cloudy
8:30 AM 19.4 °F 7.2 °F 15.8 °F 86% 29.71 in 5.6 mi ENE 11.5 mph - N/A   Overcast
9:00 AM 20 °F - 18 °F 87% 29.78 in 2 mi NE 8.9 mph - -   Mist
9:00 AM 19.4 °F 7.2 °F 15.8 °F 86% 29.71 in 5.6 mi ENE 11.5 mph - N/A   Overcast
9:30 AM 19.4 °F 7.2 °F 15.8 °F 86% 29.74 in 5.0 mi ENE 11.5 mph - N/A   Mostly Cloudy
10:00 AM 20 °F - 18 °F 88% 29.79 in 6 mi NE 8.9 mph - -   Overcast
10:00 AM 19.4 °F 7.2 °F 15.8 °F 86% 29.74 in 5.6 mi ENE 11.5 mph - N/A   Overcast
10:30 AM 21.2 °F 9.5 °F 15.8 °F 80% 29.74 in 6.2 mi ENE 11.5 mph - N/A   Overcast
11:00 AM 21 °F - 18 °F 81% 29.80 in 6 mi ENE 8.9 mph - -   Overcast
11:00 AM 21.2 °F 8.3 °F 15.8 °F 80% 29.74 in 6.2 mi ENE 13.8 mph - N/A   Overcast
11:30 AM 21.2 °F 8.3 °F 15.8 °F 80% 29.74 in 6.2 mi ENE 13.8 mph - N/A   Overcast
12:00 PM 22 °F - 17 °F 75% 29.81 in 6 mi ENE 11.2 mph - -   Partly Cloudy
12:00 PM 21.2 °F 8.3 °F 17.6 °F 86% 29.74 in 6.2 mi ENE 13.8 mph - N/A   Mostly Cloudy
12:30 PM 23.0 °F 10.6 °F 17.6 °F 80% 29.74 in 6.2 mi ENE 13.8 mph - N/A   Mostly Cloudy
1:00 PM 23 °F - 18 °F 74% 29.80 in 6 mi ENE 11.2 mph - -   Partly Cloudy
1:00 PM 23.0 °F 9.6 °F 17.6 °F 80% 29.74 in 6.2 mi ENE 16.1 mph - N/A   Mostly Cloudy
1:30 PM 23.0 °F 10.6 °F 17.6 °F 80% 29.74 in 6.2 mi East 13.8 mph - N/A   Mostly Cloudy
2:00 PM 23 °F - 18 °F 76% 29.78 in 6 mi ENE 11.2 mph - -   Overcast
2:00 PM 23.0 °F 9.6 °F 17.6 °F 80% 29.71 in 6.2 mi ENE 16.1 mph - N/A   Mostly Cloudy
2:30 PM 23.0 °F 11.7 °F 17.6 °F 80% 29.71 in 6.2 mi East 11.5 mph - N/A   Overcast
3:00 PM 23 °F - 19 °F 77% 29.78 in 6 mi ENE 13.4 mph - -   Overcast
3:00 PM 23.0 °F 11.7 °F 17.6 °F 80% 29.71 in 6.2 mi East 11.5 mph - N/A   Overcast
3:30 PM 23.0 °F 10.6 °F 17.6 °F 80% 29.71 in 6.2 mi ENE 13.8 mph - N/A   Overcast
4:00 PM 23 °F - 19 °F 77% 29.77 in 6 mi NE 8.9 mph - -   Overcast
4:00 PM 23.0 °F 10.6 °F 17.6 °F 80% 29.71 in 5.0 mi ENE 13.8 mph - N/A   Overcast
4:30 PM 23.0 °F 11.7 °F 17.6 °F 80% 29.71 in 5.6 mi ENE 11.5 mph - N/A   Mostly Cloudy
5:00 PM 22 °F - 19 °F 81% 29.78 in 6 mi NE 8.9 mph - -   Overcast
5:00 PM 23.0 °F 11.7 °F 17.6 °F 80% 29.74 in 6.2 mi East 11.5 mph - N/A   Overcast
5:30 PM 23.0 °F 13.1 °F 17.6 °F 80% 29.74 in 6.2 mi East 9.2 mph - N/A   Overcast
6:00 PM 22 °F - 19 °F 81% 29.80 in 6 mi ENE 8.9 mph - -   Overcast
6:00 PM 21.2 °F 8.3 °F 17.6 °F 86% 29.74 in 5.0 mi ENE 13.8 mph - N/A   Overcast
6:30 PM 21.2 °F 8.3 °F 17.6 °F 86% 29.74 in 4.3 mi ENE 13.8 mph - N/A   Mostly Cloudy
7:00 PM 22 °F - 19 °F 83% 29.80 in 6 mi NE 8.9 mph - -   Overcast
7:00 PM 23.0 °F 11.7 °F 17.6 °F 80% 29.74 in 4.3 mi ENE 11.5 mph - N/A   Overcast
7:30 PM 21.2 °F 9.5 °F 17.6 °F 86% 29.74 in 5.0 mi East 11.5 mph - N/A   Overcast
8:00 PM 22 °F - 19 °F 81% 29.81 in 6 mi ENE 8.9 mph - -   Overcast
8:00 PM 21.2 °F 8.3 °F 17.6 °F 86% 29.74 in 4.3 mi ENE 13.8 mph - N/A   Overcast
8:30 PM 21.2 °F 8.3 °F 17.6 °F 86% 29.74 in 5.0 mi ENE 13.8 mph - N/A   Overcast
9:00 PM 22 °F - 19 °F 81% 29.81 in 6 mi NE 8.9 mph - -   Overcast
9:00 PM 21.2 °F 9.5 °F 17.6 °F 86% 29.74 in 5.0 mi ENE 11.5 mph - N/A   Mostly Cloudy
9:30 PM 21.2 °F 8.3 °F 17.6 °F 86% 29.74 in 5.6 mi ENE 13.8 mph - N/A   Mostly Cloudy
10:00 PM 22 °F - 19 °F 81% 29.81 in 6 mi NE 6.7 mph - -   Overcast
10:00 PM 21.2 °F 8.3 °F 17.6 °F 86% 29.74 in 6.2 mi ENE 13.8 mph - N/A   Overcast
10:30 PM 21.2 °F 6.4 °F 17.6 °F 86% 29.74 in 6.2 mi ENE 18.4 mph - N/A   Mostly Cloudy
11:00 PM 22 °F - 18 °F 77% 29.81 in 6 mi NE 11.2 mph - -   Overcast
11:00 PM 21.2 °F 6.4 °F 15.8 °F 80% 29.74 in 6.2 mi ENE 18.4 mph - N/A   Overcast